Terug naar catalogus

BREEZE-M DEB

TANK

ActiefHEO
NORAD 40366·DEBRIS·🇷🇺 Russia

Gelanceerd Dec 27, 2014 vanaf Baikonur Cosmodrome

Loading…

Volgende Passages (komende 24 uur)

TLE

VersSource: Space-Track

Epoch: Sep 14, 2026, 04:01 UTC

1 40366U 14089C   26257.16804089  .00001192  00000-0  39112-3 0  9991
2 40366  49.5651 324.9505 5120930 320.4140  11.6777  5.37228658224501

Volg BREEZE-M DEB in realtime met AllMySat

Download on the App Store